Location: Central Coast
(33.3208°S, 151.2336°E)
Time: 10:24:35
(UTC+11:00)

Tiangong 2 - Pass Details

Date: 09 October 2017
Orbit: 386 x 390 km, 42.8° (Epoch: 12 December)

Event Time Altitude Azimuth Distance (km) Brightness Sun altitude
Rises 20:52:19 0° 236° (WSW) 2,293 6.4 -22.6°
Reaches altitude 10° 20:54:55 10° 215° (SW) 1,435 4.8 -23.1°
Enters shadow 20:56:47 17° 179° (S) 1,100 3.6 -23.5°
